DW8027 Weather Reports


Display with metric or nautical units.
time (UTC)temp
F
wind
direction
speed
MPH
gust
MPH
rain 1hr
in
rain 24hr
in
rain mn
in
humidity
%
barometer
mb
20181016222336 76 119 0.0 0.0 0.00 0.00 0.00 90 1018.5
20181016221842 77 119 0.0 0.0 0.00 0.00 0.00 88 1018.5
20181016221326 77 118 0.0 0.0 0.00 0.00 0.00 88 1018.5
20181016220832 78 119 0.0 0.0 0.00 0.00 0.00 87 1018.4
20181016220338 78 118 0.0 0.0 0.00 0.00 0.00 87 1018.3
20181016215843 78 118 0.0 0.0 0.00 0.00 0.00 86 1018.4
20181016215329 78 118 0.0 0.0 0.00 0.00 0.00 86 1018.4
20181016214835 78 118 0.0 0.0 0.00 0.00 0.00 87 1018.3
20181016214341 78 118 0.0 0.0 0.00 0.00 0.00 87 1018.3
20181016213827 78 118 0.0 0.0 0.00 0.00 0.00 86 1018.3
20181016213334 79 118 0.0 0.0 0.00 0.00 0.00 86 1018.4
20181016212838 79 118 0.0 0.0 0.00 0.00 0.00 85 1018.3
20181016212324 79 72 0.0 0.0 0.00 0.00 0.00 85 1018.3
20181016211830 79 200 0.0 0.0 0.00 0.00 0.00 85 1018.3
20181016211336 79 200 0.0 0.0 0.00 0.00 0.00 85 1018.3
20181016210840 80 200 0.0 0.0 0.00 0.00 0.00 84 1018.2
20181016210326 80 203 0.0 0.0 0.00 0.00 0.00 83 1018.2
20181016205831 80 115 0.0 0.0 0.00 0.00 0.00 82 1018.1
20181016205335 80 114 0.0 0.0 0.00 0.00 0.00 82 1018.1
20181016204841 81 114 0.0 0.0 0.00 0.00 0.00 82 1018.1
20181016204327 81 114 0.0 0.0 0.00 0.00 0.00 80 1018.1
20181016203833 82 75 0.0 0.0 0.00 0.00 0.00 79 1018.0
20181016203338 82 54 0.0 0.0 0.00 0.00 0.00 78 1018.1
20181016202843 82 53 0.0 0.0 0.00 0.00 0.00 79 1018.2
20181016202329 81 53 0.0 0.0 0.00 0.00 0.00 80 1018.1
20181016201835 81 115 0.0 0.0 0.00 0.00 0.00 79 1018.2
20181016201341 81 115 0.0 0.0 0.00 0.00 0.00 80 1018.2
20181016200826 81 91 0.0 0.0 0.00 0.00 0.00 80 1018.2
20181016200330 81 90 0.0 0.0 0.00 0.00 0.00 80 1018.2
20181016195835 81 120 0.0 0.0 0.00 0.00 0.00 82 1018.3
20181016195341 81 120 0.0 0.0 0.00 0.00 0.00 82 1018.3
20181016194826 81 120 0.0 0.0 0.00 0.00 0.00 81 1018.3
20181016194332 81 122 0.0 0.0 0.00 0.00 0.00 81 1018.3
20181016193838 81 124 0.0 0.0 0.00 0.00 0.00 79 1018.3
20181016193328 81 124 0.0 1.0 0.00 0.00 0.00 79 1018.5
20181016192832 81 105 0.0 1.0 0.00 0.00 0.00 78 1018.5
20181016192338 81 224 0.0 0.0 0.00 0.00 0.00 79 1018.5
20181016191825 81 89 0.0 0.0 0.00 0.00 0.00 78 1018.5
20181016191331 81 107 0.0 0.0 0.00 0.00 0.00 79 1018.5
20181016190836 80 169 0.0 0.0 0.00 0.00 0.00 80 1018.4
20181016190342 80 83 0.0 0.0 0.00 0.00 0.00 80 1018.7
20181016185826 80 162 0.0 0.0 0.00 0.00 0.00 80 1018.8
20181016185333 80 186 0.0 0.0 0.00 0.00 0.00 79 1018.8
20181016184838 80 143 0.0 0.0 0.00 0.00 0.00 79 1018.8
20181016184324 80 136 0.0 0.0 0.00 0.00 0.00 79 1018.8
20181016183830 80 155 0.0 0.0 0.00 0.00 0.00 79 1019.0
20181016183336 80 47 0.0 0.0 0.00 0.00 0.00 81 1019.1
20181016182841 80 23 0.0 0.0 0.00 0.00 0.00 80 1019.1
20181016182327 79 229 0.0 0.0 0.00 0.00 0.00 81 1019.2
20181016181833 79 204 0.0 0.0 0.00 0.00 0.00 82 1019.4
20181016181339 79 207 0.0 0.0 0.00 0.00 0.00 83 1019.5
20181016180825 78 131 0.0 0.0 0.00 0.00 0.00 84 1019.5
20181016180332 78 131 0.0 0.0 0.00 0.00 0.00 83 1019.6
20181016175837 78 105 0.0 1.0 0.00 0.00 0.00 82 1019.6
20181016175342 79 64 0.0 1.0 0.00 0.00 0.00 81 1019.6
20181016174828 79 60 0.0 0.0 0.00 0.00 0.00 81 1019.7
20181016174334 78 146 0.0 0.0 0.00 0.00 0.00 82 1019.8
20181016173840 78 217 0.0 0.0 0.00 0.00 0.00 83 1019.8
20181016173327 77 120 0.0 0.0 0.00 0.00 0.00 84 1019.8
20181016172832 77 121 0.0 0.0 0.00 0.00 0.00 84 1020.0
20181016172338 76 121 0.0 0.0 0.00 0.00 0.00 86 1020.2
20181016171824 76 120 0.0 0.0 0.00 0.00 0.00 84 1020.2
20181016171330 77 121 0.0 0.0 0.00 0.00 0.00 86 1020.4
20181016170836 77 121 0.0 0.0 0.00 0.00 0.00 85 1020.4
20181016170339 77 121 0.0 0.0 0.00 0.00 0.00 85 1020.5
20181016165843 76 121 0.0 0.0 0.00 0.00 0.00 85 1020.5
20181016165328 76 121 0.0 0.0 0.00 0.00 0.00 84 1020.7
20181016164833 76 121 0.0 0.0 0.00 0.00 0.00 84 1020.7
20181016164339 76 121 0.0 0.0 0.00 0.00 0.00 84 1020.7
20181016163825 76 124 0.0 0.0 0.00 0.00 0.00 84 1020.8
20181016163331 76 124 0.0 0.0 0.00 0.00 0.00 85 1020.8
20181016162836 76 124 0.0 0.0 0.00 0.00 0.00 85 1020.8
20181016162342 76 124 0.0 0.0 0.00 0.00 0.00 85 1020.8
20181016161828 76 91 0.0 0.0 0.00 0.00 0.00 86 1020.8
20181016161334 75 90 0.0 0.0 0.00 0.00 0.00 86 1020.8
20181016160839 75 96 0.0 0.0 0.00 0.00 0.00 87 1020.9
20181016160345 75 110 0.0 0.0 0.00 0.00 0.00 87 1020.8
20181016155829 74 184 0.0 0.0 0.00 0.00 0.00 88 1020.9
20181016155335 74 79 0.0 0.0 0.00 0.00 0.00 89 1020.9
20181016154825 73 65 0.0 0.0 0.00 0.00 0.00 90 1021.0
20181016154330 73 95 0.0 0.0 0.00 0.00 0.00 91 1021.1
20181016153836 72 72 0.0 0.0 0.00 0.00 0.00 91 1021.1
20181016153341 72 77 0.0 0.0 0.00 0.00 0.00 92 1021.2
20181016152826 71 121 0.0 0.0 0.00 0.00 0.00 93 1021.2
20181016152332 71 98 0.0 0.0 0.00 0.00 0.00 95 1021.2
20181016151838 71 115 0.0 0.0 0.00 0.00 0.00 95 1021.2
20181016151324 71 144 0.0 0.0 0.00 0.00 0.00 96 1021.3
20181016150829 71 105 0.0 0.0 0.00 0.00 0.00 97 1021.3
20181016150334 71 89 0.0 0.0 0.00 0.00 0.00 97 1021.2
20181016145839 70 85 0.0 0.0 0.00 0.00 0.00 97 1021.3
20181016145325 70 81 0.0 0.0 0.00 0.00 0.00 97 1021.4
20181016144831 70 87 0.0 1.0 0.00 0.00 0.00 97 1021.3
20181016144337 71 79 0.0 1.0 0.00 0.00 0.00 97 1021.3
20181016143843 71 136 0.0 0.0 0.00 0.00 0.00 98 1021.4
20181016143328 70 103 0.0 0.0 0.00 0.00 0.00 98 1021.2
20181016142833 70 87 0.0 0.0 0.00 0.00 0.00 98 1021.2
20181016142337 70 89 0.0 0.0 0.00 0.00 0.00 98 1021.3
20181016141842 70 89 0.0 0.0 0.00 0.00 0.00 98 1021.2
20181016141328 70 89 0.0 0.0 0.00 0.00 0.00 99 1021.3
20181016140834 69 89 0.0 1.0 0.00 0.00 0.00 99 1021.3
20181016140339 69 150 0.0 1.0 0.00 0.00 0.00 99 1021.3
20181016135824 69 75 0.0 0.0 0.00 0.00 0.00 99 1021.3
20181016135328 69 128 0.0 0.0 0.00 0.00 0.00 99 1021.2
20181016134834 69 100 0.0 0.0 0.00 0.00 0.00 99 1021.1
20181016134340 69 49 0.0 0.0 0.00 0.00 0.00 99 1021.1
20181016133826 68 98 0.0 0.0 0.00 0.00 0.00 99 1021.0
20181016133332 68 98 0.0 0.0 0.00 0.00 0.00 99 1020.9
20181016132837 68 136 0.0 0.0 0.00 0.00 0.00 99 1021.0
20181016132343 68 100 0.0 0.0 0.00 0.00 0.00 99 1020.9
20181016131829 67 100 0.0 0.0 0.00 0.00 0.00 99 1020.9
20181016131335 67 101 0.0 0.0 0.00 0.00 0.00 99 1020.8
20181016130841 66 100 0.0 0.0 0.00 0.00 0.00 99 1020.9
20181016130327 66 100 0.0 0.0 0.00 0.00 0.00 99 1020.7
20181016125832 66 101 0.0 0.0 0.00 0.00 0.00 99 1020.8
20181016125338 66 100 0.0 0.0 0.00 0.00 0.00 99 1020.7
20181016124843 66 101 0.0 0.0 0.00 0.00 0.00 99 1020.7
20181016124326 66 100 0.0 0.0 0.00 0.00 0.00 99 1020.7
20181016123831 66 100 0.0 0.0 0.00 0.00 0.00 99 1020.6
20181016123336 66 100 0.0 0.0 0.00 0.00 0.00 99 1020.6
20181016122840 65 101 0.0 0.0 0.00 0.00 0.00 99 1020.4
20181016122326 65 100 0.0 0.0 0.00 0.00 0.00 99 1020.3
20181016121832 65 100 0.0 0.0 0.00 0.00 0.00 99 1020.2
20181016121338 65 100 0.0 0.0 0.00 0.00 0.00 99 1020.3
20181016120824 65 100 0.0 0.0 0.00 0.00 0.00 99 1020.3
20181016120329 65 100 0.0 0.0 0.00 0.00 0.00 99 1020.2
20181016115833 65 100 0.0 0.0 0.00 0.00 0.00 99 1020.1
20181016115338 65 101 0.0 0.0 0.00 0.00 0.00 99 1019.9
20181016114828 65 100 0.0 0.0 0.00 0.00 0.00 99 1019.8
20181016114334 65 100 0.0 0.0 0.00 0.00 0.00 99 1019.8
20181016113839 65 100 0.0 0.0 0.00 0.00 0.00 99 1019.8
20181016113326 65 76 0.0 0.0 0.00 0.00 0.00 99 1019.8
20181016112831 65 76 0.0 0.0 0.00 0.00 0.00 99 1019.8
20181016112336 64 76 0.0 0.0 0.00 0.00 0.00 99 1019.8
20181016111842 64 77 0.0 0.0 0.00 0.00 0.00 99 1019.9
20181016111329 64 76 0.0 0.0 0.00 0.00 0.00 99 1019.7
20181016110834 64 76 0.0 0.0 0.00 0.00 0.00 99 1019.7
20181016110339 64 76 0.0 0.0 0.00 0.00 0.00 99 1019.7
20181016105824 64 76 0.0 0.0 0.00 0.00 0.00 99 1019.7
20181016105329 64 76 0.0 0.0 0.00 0.00 0.00 99 1019.7
20181016104834 64 76 0.0 0.0 0.00 0.00 0.00 99 1019.7
20181016104339 64 76 0.0 0.0 0.00 0.00 0.00 99 1019.6
20181016103842 65 76 0.0 0.0 0.00 0.00 0.00 99 1019.6
20181016103327 65 76 0.0 0.0 0.00 0.00 0.00 99 1019.6
20181016102831 65 76 0.0 0.0 0.00 0.00 0.00 99 1019.5
20181016102337 65 77 0.0 0.0 0.00 0.00 0.00 99 1019.6
20181016101842 65 77 0.0 0.0 0.00 0.00 0.00 99 1019.4
20181016101329 65 76 0.0 0.0 0.00 0.00 0.00 99 1019.5
20181016100834 65 76 0.0 0.0 0.00 0.00 0.00 99 1019.5
20181016100339 65 77 0.0 0.0 0.00 0.00 0.00 99 1019.4
20181016095843 65 77 0.0 0.0 0.00 0.00 0.00 99 1019.4
20181016095329 65 76 0.0 0.0 0.00 0.00 0.00 99 1019.4
20181016094835 65 76 0.0 0.0 0.00 0.00 0.00 99 1019.3
20181016094339 65 76 0.0 0.0 0.00 0.00 0.00 99 1019.4
20181016093825 65 76 0.0 0.0 0.00 0.00 0.00 99 1019.5
20181016093331 65 77 0.0 0.0 0.00 0.00 0.00 99 1019.5
20181016092836 65 76 0.0 0.0 0.00 0.00 0.00 99 1019.3
20181016092342 65 76 0.0 0.0 0.00 0.00 0.00 99 1019.2
20181016091828 65 77 0.0 0.0 0.00 0.00 0.00 99 1019.3
20181016091335 65 76 0.0 0.0 0.00 0.00 0.00 99 1019.3
20181016090838 65 76 0.0 0.0 0.00 0.00 0.00 99 1019.2
20181016090343 65 77 0.0 0.0 0.00 0.00 0.00 99 1019.1
20181016085828 65 76 0.0 0.0 0.00 0.00 0.00 99 1018.9
20181016085334 65 77 0.0 0.0 0.00 0.00 0.00 99 1019.0
20181016084839 65 76 0.0 0.0 0.00 0.00 0.00 99 1019.0
20181016084343 65 76 0.0 0.0 0.00 0.00 0.00 99 1019.0
20181016083827 65 77 0.0 0.0 0.00 0.00 0.00 99 1019.0
20181016083332 65 77 0.0 0.0 0.00 0.00 0.00 99 1019.1
20181016082837 65 77 0.0 0.0 0.00 0.00 0.00 99 1019.2
20181016082342 65 76 0.0 0.0 0.00 0.00 0.00 99 1019.3
20181016081827 66 76 0.0 0.0 0.00 0.00 0.00 99 1019.2
20181016081333 66 76 0.0 0.0 0.00 0.00 0.00 99 1019.2
20181016080838 66 76 0.0 0.0 0.00 0.00 0.00 99 1019.2
20181016080343 66 76 0.0 0.0 0.00 0.00 0.00 99 1019.1
20181016075827 66 76 0.0 0.0 0.00 0.00 0.00 99 1019.2
20181016075333 66 76 0.0 0.0 0.00 0.00 0.00 99 1019.2
20181016074838 66 76 0.0 0.0 0.00 0.00 0.00 99 1019.2
20181016074327 66 76 0.0 0.0 0.00 0.00 0.00 99 1019.3
20181016073833 66 76 0.0 0.0 0.00 0.00 0.00 99 1019.3
20181016073339 66 76 0.0 0.0 0.00 0.00 0.00 99 1019.2
20181016072843 66 76 0.0 0.0 0.00 0.00 0.00 99 1019.2
20181016072329 66 76 0.0 0.0 0.00 0.00 0.00 99 1019.3
20181016071835 66 76 0.0 0.0 0.00 0.00 0.00 99 1019.3
20181016071340 66 76 0.0 0.0 0.00 0.00 0.00 99 1019.3
20181016070826 66 77 0.0 0.0 0.00 0.00 0.00 99 1019.4
20181016070332 66 76 0.0 0.0 0.00 0.00 0.00 99 1019.2
20181016065837 66 76 0.0 0.0 0.00 0.00 0.00 99 1019.3
20181016065343 66 77 0.0 0.0 0.00 0.00 0.00 99 1019.5
20181016064829 66 76 0.0 0.0 0.00 0.00 0.00 99 1019.4
20181016064335 66 77 0.0 0.0 0.00 0.00 0.00 99 1019.5
20181016063841 66 76 0.0 0.0 0.00 0.00 0.00 99 1019.5
20181016063328 66 76 0.0 0.0 0.00 0.00 0.00 99 1019.5
20181016062831 66 76 0.0 0.0 0.00 0.00 0.00 99 1019.5
20181016062337 66 77 0.0 0.0 0.00 0.00 0.00 99 1019.5
20181016061843 66 76 0.0 0.0 0.00 0.00 0.00 99 1019.4
20181016061325 66 76 0.0 0.0 0.00 0.00 0.00 99 1019.2
20181016060831 66 76 0.0 0.0 0.00 0.00 0.00 99 1019.1
20181016060338 66 76 0.0 0.0 0.00 0.00 0.00 99 1018.9
20181016055843 66 76 0.0 0.0 0.00 0.00 0.00 99 1019.0
20181016055329 66 76 0.0 0.0 0.00 0.00 0.00 99 1019.1
20181016054835 66 77 0.0 0.0 0.00 0.00 0.00 99 1019.1
20181016054341 66 76 0.0 0.0 0.00 0.00 0.00 99 1019.3
20181016053827 66 76 0.0 0.0 0.00 0.00 0.00 99 1019.1
20181016053333 66 76 0.0 0.0 0.00 0.00 0.00 99 1019.0
20181016052837 66 76 0.0 0.0 0.00 0.00 0.00 99 1019.0
20181016052343 66 76 0.0 0.0 0.00 0.00 0.00 99 1019.0
20181016051827 66 77 0.0 0.0 0.00 0.00 0.00 99 1019.1
20181016051332 66 76 0.0 0.0 0.00 0.00 0.00 99 1019.2
20181016050838 66 77 0.0 0.0 0.00 0.00 0.00 99 1019.2
20181016050344 66 76 0.0 0.0 0.00 0.00 0.00 99 1019.4
20181016045827 66 77 0.0 0.0 0.00 0.00 0.00 99 1019.4
20181016045332 66 76 0.0 0.0 0.00 0.00 0.00 99 1019.4
20181016044837 66 76 0.0 0.0 0.00 0.00 0.00 99 1019.5
20181016044342 67 76 0.0 0.0 0.00 0.00 0.00 99 1019.5
20181016043827 67 76 0.0 0.0 0.00 0.00 0.00 99 1019.4
20181016043332 67 77 0.0 0.0 0.00 0.00 0.00 99 1019.5
20181016042837 67 76 0.0 0.0 0.00 0.00 0.00 99 1019.5
20181016042342 67 76 0.0 0.0 0.00 0.00 0.00 99 1019.6
20181016041828 67 76 0.0 0.0 0.00 0.00 0.00 99 1019.7
20181016041333 67 77 0.0 0.0 0.00 0.00 0.00 99 1019.9
20181016040839 67 76 0.0 0.0 0.00 0.00 0.00 99 1020.0
20181016040342 67 76 0.0 0.0 0.00 0.00 0.00 99 1020.3
20181016035827 67 76 0.0 0.0 0.00 0.00 0.00 99 1020.3
20181016035333 67 76 0.0 0.0 0.00 0.00 0.00 99 1020.3
20181016034839 67 76 0.0 0.0 0.00 0.00 0.00 99 1020.2
20181016034328 67 76 0.0 0.0 0.00 0.00 0.00 99 1020.3
20181016033835 67 76 0.0 0.0 0.00 0.00 0.00 99 1020.3
20181016033341 68 76 0.0 0.0 0.00 0.00 0.00 99 1020.3
20181016032826 67 76 0.0 0.0 0.00 0.00 0.00 99 1020.3
20181016032331 67 76 0.0 0.0 0.00 0.00 0.00 99 1020.3
20181016031837 68 76 0.0 0.0 0.00 0.00 0.00 99 1020.3
20181016031343 68 76 0.0 0.0 0.00 0.00 0.00 99 1020.3
20181016030830 68 76 0.0 0.0 0.00 0.00 0.00 98 1020.3
20181016030335 68 76 0.0 0.0 0.00 0.00 0.00 98 1020.4
20181016025839 68 77 0.0 0.0 0.00 0.00 0.00 98 1020.4
20181016025325 68 76 0.0 0.0 0.00 0.00 0.00 98 1020.4
20181016024831 68 77 0.0 0.0 0.00 0.00 0.00 98 1020.4
20181016024336 68 77 0.0 0.0 0.00 0.00 0.00 98 1020.4
20181016023841 68 76 0.0 0.0 0.00 0.00 0.00 98 1020.3
20181016023327 68 76 0.0 0.0 0.00 0.00 0.00 98 1020.3
20181016022831 68 76 0.0 0.0 0.00 0.00 0.00 98 1020.2
20181016022337 68 76 0.0 0.0 0.00 0.00 0.00 98 1020.0
20181016021842 68 76 0.0 0.0 0.00 0.00 0.00 98 1019.9
20181016021328 68 77 0.0 0.0 0.00 0.00 0.00 98 1019.9
20181016020834 68 77 0.0 0.0 0.00 0.00 0.00 98 1019.9
20181016020340 68 76 0.0 0.0 0.00 0.00 0.00 98 1019.9
20181016015825 68 76 0.0 0.0 0.00 0.00 0.00 98 1019.9
20181016015330 68 76 0.0 0.0 0.00 0.00 0.00 98 1019.9
20181016014836 69 76 0.0 0.0 0.00 0.00 0.00 98 1019.9
20181016014340 69 76 0.0 0.0 0.00 0.00 0.00 98 1019.8
20181016013826 69 77 0.0 0.0 0.00 0.00 0.00 98 1019.9
20181016013331 69 76 0.0 0.0 0.00 0.00 0.00 98 1019.9
20181016012836 69 76 0.0 0.0 0.00 0.00 0.00 98 1019.8
20181016012342 69 76 0.0 0.0 0.00 0.00 0.00 98 1019.7
20181016011827 69 76 0.0 0.0 0.00 0.00 0.00 98 1019.6
20181016011333 69 76 0.0 0.0 0.00 0.00 0.00 98 1019.6
20181016010839 69 76 0.0 0.0 0.00 0.00 0.00 98 1019.4
20181016010344 69 76 0.0 0.0 0.00 0.00 0.00 98 1019.4
20181016005829 69 77 0.0 0.0 0.00 0.00 0.00 98 1019.4
20181016005334 69 76 0.0 0.0 0.00 0.00 0.00 97 1019.4
20181016004839 69 77 0.0 0.0 0.00 0.00 0.00 97 1019.4
20181016004325 70 76 0.0 0.0 0.00 0.00 0.00 97 1019.5
20181016003832 70 76 0.0 0.0 0.00 0.00 0.00 97 1019.5
20181016003336 70 77 0.0 0.0 0.00 0.00 0.00 97 1019.5
20181016002841 70 76 0.0 0.0 0.00 0.00 0.00 97 1019.5
20181016002327 70 76 0.0 0.0 0.00 0.00 0.00 97 1019.4
20181016001832 70 77 0.0 0.0 0.00 0.00 0.00 97 1019.3
20181016001338 70 76 0.0 0.0 0.00 0.00 0.00 96 1019.2
20181016000824 70 76 0.0 0.0 0.00 0.00 0.00 96 1019.0
20181016000330 70 77 0.0 0.0 0.00 0.00 0.00 96 1019.0
20181015235833 71 76 0.0 0.0 0.00 0.00 0.00 96 1019.0
20181015235338 71 77 0.0 0.0 0.00 0.00 0.00 95 1018.9
20181015234826 71 76 0.0 0.0 0.00 0.00 0.00 96 1019.0
20181015234332 71 77 0.0 0.0 0.00 0.00 0.00 96 1019.0
20181015233838 71 76 0.0 0.0 0.00 0.00 0.00 95 1018.9
20181015233342 71 76 0.0 0.0 0.00 0.00 0.00 95 1018.8
20181015232826 71 76 0.0 0.0 0.00 0.00 0.00 95 1018.9
20181015232331 72 76 0.0 0.0 0.00 0.00 0.00 94 1018.9
20181015231837 72 76 0.0 0.0 0.00 0.00 0.00 94 1019.0
20181015231342 72 76 0.0 0.0 0.00 0.00 0.00 93 1018.9
20181015230827 73 76 0.0 0.0 0.00 0.00 0.00 93 1019.0
20181015230333 73 76 0.0 0.0 0.00 0.00 0.00 92 1019.0
20181015225838 73 76 0.0 0.0 0.00 0.00 0.00 91 1019.0
20181015225343 74 76 0.0 0.0 0.00 0.00 0.00 91 1018.9
20181015224828 74 76 0.0 0.0 0.00 0.00 0.00 91 1019.0
20181015224334 74 76 0.0 0.0 0.00 0.00 0.00 91 1019.0
20181015223839 74 76 0.0 0.0 0.00 0.00 0.00 91 1018.9
20181015223325 75 76 0.0 0.0 0.00 0.00 0.00 91 1018.9
20181015222830 75 77 0.0 0.0 0.00 0.00 0.00 90 1018.9